User: anonymous   Login
Location: Unspecified
(0.0000°N, 0.0000°E)
Time: 23:50:21
(UTC+00:00)
Language:

STARLINK-5829 - Orbit

View from above orbital plane
View from above orbital plane
View from above satellite
View from above satellite

Ground track
Ground track

The orbit is defined by the following mean orbital elements,

1 56347U          26145.42053080 +.00000000 +00000-0 -42192-3 0 00000
2 56347  97.4483 146.4951 0001902  91.3222 268.8223 15.05686214    02
Epoch (UTC): 25 May 2026 10:05:33
Eccentricity: 0.0001902
inclination: 97.4483°
perigee height: 548 km
apogee height: 551 km
right ascension of ascending node: 146.4951°
argument of perigee: 91.3222°
revolutions per day: 15.05686214
mean anomaly at epoch: 268.8223°

The dashed part of the orbit path shows where the satellite is in the earth's shadow,  

DLR